Melfa, VA

1:02 AM EDT on April 29, 2017 (GMT -0400)
Accomack County

Weather History for KMFV - August, 2013

Change the Weather History Date:

Saturday, August 24, 2013

  Actual Average (KWAL) Record (KWAL)
Temperature  
Mean Temperature 72 °F -  
Max Temperature 82 °F 81 °F 92 °F (1995)
Min Temperature 62 °F 66 °F 52 °F (1994)
Cooling Degree Days 7    
Growing Degree Days 22 (Base 50)    
Moisture  
Dew Point 64 °F    
Average Humidity 77    
Maximum Humidity 94    
Minimum Humidity 58    
Precipitation  
Precipitation 0.00 in - - ()
Sea Level Pressure  
Sea Level Pressure 30.22 in    
Wind  
Wind Speed 4 mph (NE)    
Max Wind Speed 15 mph    
Max Gust Speed 20 mph    
Visibility 8 miles    
Events Fog , Rain    
Averages and records for this station are not official NWS values.
T = Trace of Precipitation, MM = Missing Value Source: NWS Daily Summary

Daily Weather History Graph

Daily Weather History Graph

Search for Another Location

Airport or City:

Trip Planner

Search our weather history database for the weather conditions in past years. The results will help you decide how hot, cold, wet, or windy it might be!

Date:

Astronomy

Aug. 24, 2013 Rise Set
Actual Time 6:26 AM EDT 7:43 PM EDT
Civil Twilight 5:59 AM EDT 8:10 PM EDT
Nautical Twilight 5:26 AM EDT 8:43 PM EDT
Astronomical Twilight 4:52 AM EDT 9:16 PM EDT
Moon 9:42 PM EDT (8/24) 10:18 AM EDT (8/24)
Length of Visible Light 14h 11m
Length of Day
13h 16m
Waning Gibbous, 84% of the Moon is Illuminated
Aug 24
Waning Gibbous
Aug 28
Last Quarter
Sep 5
New
Sep 12
First Quarter
Sep 19
Full

Hourly Weather History & Observations

Time (EDT) Temp. Heat Index Dew Point Humidity Pressure Visibility Wind Dir Wind Speed Gust Speed Precip Events Conditions
12:16 AM 69.8 °F - 64.4 °F 83% 30.10 in 10.0 mi Calm Calm - N/A Rain Light Rain
12:35 AM 69.8 °F - 66.2 °F 88% 30.10 in 10.0 mi Calm Calm - N/A   Light Drizzle
12:56 AM 69.8 °F - 66.2 °F 88% 30.10 in 7.0 mi Calm Calm - N/A   Overcast
1:16 AM 68.0 °F - 66.2 °F 94% 30.10 in 5.0 mi Calm Calm - N/A   Mostly Cloudy
1:36 AM 68.0 °F - 66.2 °F 94% 30.10 in 7.0 mi Calm Calm - N/A   Overcast
1:56 AM 68.0 °F - 66.2 °F 94% 30.10 in 7.0 mi Calm Calm - N/A   Mostly Cloudy
2:16 AM 68.0 °F - 66.2 °F 94% 30.11 in 7.0 mi Calm Calm - N/A   Scattered Clouds
2:35 AM 68.0 °F - 66.2 °F 94% 30.11 in 7.0 mi Calm Calm - N/A   Scattered Clouds
2:56 AM 68.0 °F - 66.2 °F 94% 30.12 in 5.0 mi Calm Calm - N/A   Scattered Clouds
3:16 AM 66.2 °F - 64.4 °F 94% 30.12 in 3.0 mi Calm Calm - N/A   Clear
3:36 AM 66.2 °F - 64.4 °F 94% 30.12 in 1.0 mi Calm Calm - N/A   Mist
3:56 AM 66.2 °F - 64.4 °F 94% 30.12 in 1.0 mi NNE 3.5 mph - N/A   Mist
4:16 AM 66.2 °F - 64.4 °F 94% 30.13 in 1.0 mi Calm Calm - N/A   Mist
4:37 AM 64.4 °F - 62.6 °F 94% 30.13 in 3.0 mi Calm Calm - N/A   Clear
4:56 AM 64.4 °F - 62.6 °F 94% 30.14 in 0.5 mi NNE 4.6 mph - N/A Fog Fog
5:16 AM 64.4 °F - 62.6 °F 94% 30.14 in 1.8 mi NNE 4.6 mph - N/A   Mostly Cloudy
5:36 AM 64.4 °F - 62.6 °F 94% 30.14 in 1.8 mi NNE 3.5 mph - N/A   Mist
5:57 AM 64.4 °F - 62.6 °F 94% 30.14 in 0.5 mi Calm Calm - N/A Fog Fog
6:16 AM 64.4 °F - 62.6 °F 94% 30.15 in 5.0 mi NNE 4.6 mph - N/A   Clear
6:36 AM 62.6 °F - 60.8 °F 94% 30.16 in 7.0 mi North 6.9 mph - N/A   Clear
6:56 AM 64.4 °F - 62.6 °F 94% 30.17 in 10.0 mi North 5.8 mph - N/A   Clear
7:16 AM 66.2 °F - 62.6 °F 88% 30.18 in 10.0 mi NNE 5.8 mph - N/A   Clear
7:35 AM 68.0 °F - 62.6 °F 83% 30.18 in 10.0 mi NNE 4.6 mph - N/A   Clear
7:55 AM 69.8 °F - 62.6 °F 78% 30.19 in 10.0 mi NNE 5.8 mph - N/A   Clear
8:15 AM 71.6 °F - 62.6 °F 73% 30.19 in 10.0 mi NE 3.5 mph - N/A   Clear
8:35 AM 71.6 °F - 64.4 °F 78% 30.20 in 10.0 mi NE 4.6 mph - N/A   Clear
8:55 AM 73.4 °F - 64.4 °F 73% 30.20 in 10.0 mi NNE 4.6 mph - N/A   Clear
9:15 AM 75.2 °F - 64.4 °F 69% 30.21 in 10.0 mi NE 8.1 mph - N/A   Clear
9:35 AM 75.2 °F - 64.4 °F 69% 30.21 in 10.0 mi NE 9.2 mph - N/A   Clear
9:55 AM 77.0 °F - 66.2 °F 69% 30.22 in 10.0 mi NE 9.2 mph - N/A   Clear
10:15 AM 78.8 °F - 66.2 °F 65% 30.23 in 10.0 mi ENE 10.4 mph 18.4 mph N/A   Clear
10:35 AM 78.8 °F - 66.2 °F 65% 30.23 in 10.0 mi ENE 12.7 mph - N/A   Clear
10:55 AM 80.6 °F 82.7 °F 66.2 °F 61% 30.23 in 10.0 mi ENE 11.5 mph - N/A   Clear
11:16 AM 78.8 °F - 66.2 °F 65% 30.24 in 10.0 mi NE 11.5 mph - N/A   Clear
11:35 AM 80.6 °F 82.7 °F 66.2 °F 61% 30.24 in 10.0 mi ENE 11.5 mph 16.1 mph N/A   Scattered Clouds
11:57 AM 80.6 °F 82.7 °F 66.2 °F 61% 30.25 in 10.0 mi ENE 12.7 mph - N/A   Scattered Clouds
12:16 PM 80.6 °F 82.3 °F 64.4 °F 58% 30.25 in 10.0 mi ENE 12.7 mph - N/A   Scattered Clouds
12:35 PM 80.6 °F 82.7 °F 66.2 °F 61% 30.25 in 10.0 mi ENE 11.5 mph 17.3 mph N/A   Scattered Clouds
12:57 PM 82.4 °F 84.6 °F 66.2 °F 58% 30.25 in 10.0 mi East 8.1 mph - N/A   Scattered Clouds
1:15 PM 82.4 °F 84.6 °F 66.2 °F 58% 30.24 in 10.0 mi East 11.5 mph 16.1 mph N/A   Scattered Clouds
1:35 PM 80.6 °F 82.7 °F 66.2 °F 61% 30.25 in 10.0 mi ENE 10.4 mph 19.6 mph N/A   Clear
1:55 PM 80.6 °F 82.3 °F 64.4 °F 58% 30.25 in 10.0 mi ENE 15.0 mph 18.4 mph N/A   Clear
2:15 PM 80.6 °F 82.7 °F 66.2 °F 61% 30.25 in 10.0 mi East 9.2 mph 18.4 mph N/A   Clear
2:36 PM 80.6 °F 82.3 °F 64.4 °F 58% 30.25 in 10.0 mi East 13.8 mph - N/A   Scattered Clouds
2:55 PM 80.6 °F 82.3 °F 64.4 °F 58% 30.25 in 10.0 mi ENE 13.8 mph - N/A   Clear
3:15 PM 80.6 °F 82.3 °F 64.4 °F 58% 30.25 in 10.0 mi East 12.7 mph 18.4 mph N/A   Clear
3:36 PM 80.6 °F 82.3 °F 64.4 °F 58% 30.25 in 10.0 mi East 10.4 mph 16.1 mph N/A   Clear
3:55 PM 80.6 °F 82.3 °F 64.4 °F 58% 30.26 in 10.0 mi East 8.1 mph 16.1 mph N/A   Scattered Clouds
4:15 PM 78.8 °F - 64.4 °F 61% 30.26 in 10.0 mi ENE 11.5 mph - N/A   Clear
4:36 PM 80.6 °F 82.3 °F 64.4 °F 58% 30.26 in 10.0 mi East 6.9 mph - N/A   Scattered Clouds
4:55 PM 78.8 °F - 64.4 °F 61% 30.26 in 10.0 mi ENE 13.8 mph 18.4 mph N/A   Scattered Clouds
5:15 PM 78.8 °F - 64.4 °F 61% 30.27 in 10.0 mi ENE 12.7 mph - N/A   Clear
5:35 PM 78.8 °F - 64.4 °F 61% 30.27 in 10.0 mi East 9.2 mph 17.3 mph N/A   Clear
5:55 PM 77.0 °F - 64.4 °F 65% 30.27 in 10.0 mi ENE 12.7 mph 19.6 mph N/A   Scattered Clouds
6:15 PM 77.0 °F - 64.4 °F 65% 30.27 in 10.0 mi East 8.1 mph - N/A   Clear
6:35 PM 77.0 °F - 62.6 °F 61% 30.27 in 10.0 mi ENE 11.5 mph - N/A   Clear
6:55 PM 75.2 °F - 64.4 °F 69% 30.27 in 10.0 mi East 8.1 mph - N/A   Clear
7:15 PM 75.2 °F - 64.4 °F 69% 30.27 in 10.0 mi East 5.8 mph - N/A   Clear
7:35 PM 73.4 °F - 64.4 °F 73% 30.27 in 10.0 mi ENE 4.6 mph - N/A   Clear
7:55 PM 71.6 °F - 64.4 °F 78% 30.28 in 10.0 mi Calm Calm - N/A   Clear
8:17 PM 69.8 °F - 64.4 °F 83% 30.29 in 10.0 mi Calm Calm - N/A   Clear
8:35 PM 69.8 °F - 64.4 °F 83% 30.29 in 10.0 mi Calm Calm - N/A   Clear
8:55 PM 68.0 °F - 64.4 °F 88% 30.31 in 10.0 mi NE 3.5 mph - N/A   Clear
9:16 PM 68.0 °F - 64.4 °F 88% 30.31 in 10.0 mi Calm Calm - N/A   Clear
9:36 PM 66.2 °F - 64.4 °F 94% 30.31 in 10.0 mi NNE 3.5 mph - N/A   Clear
9:56 PM 66.2 °F - 64.4 °F 94% 30.32 in 10.0 mi Calm Calm - N/A   Clear
10:16 PM 66.2 °F - 64.4 °F 94% 30.33 in 7.0 mi Calm Calm - N/A   Clear
10:35 PM 66.2 °F - 62.6 °F 88% 30.33 in 10.0 mi Calm Calm - N/A   Clear
10:56 PM 66.2 °F - 62.6 °F 88% 30.33 in 1.5 mi Calm Calm - N/A   Mist
11:16 PM 64.4 °F - 62.6 °F 94% 30.33 in 4.0 mi Calm Calm - N/A   Clear
11:36 PM 64.4 °F - 62.6 °F 94% 30.33 in 7.0 mi NNE 3.5 mph - N/A   Clear
11:56 PM 64.4 °F - 62.6 °F 94% 30.34 in 10.0 mi Calm Calm - N/A   Clear